Location: Bastelaar
(51.0950°N, 3.8602°E)
Time: 16:47:43
(UTC+00:00)

Cosmos 407 Rocket - Pass Details

Date: 18 November 2025
Orbit: 740 x 780 km, 74.0° (Epoch: 12 December)

Event Time Altitude Azimuth Distance (km) Brightness Sun altitude
Rises 16:24:00 0° 171° (S) 3,204 6.9 -5.2°
Reaches altitude 10° 16:26:36 10° 161° (SSE) 2,277 6.0 -5.6°
Maximum altitude 16:31:02 30° 101° (ESE) 1,337 4.4 -6.2°
Drops below altitude 10° 16:35:26 10° 42° (NE) 2,272 5.4 -6.8°
Enters shadow 16:37:01 - 35° (NE) 2,827 5.9 -7.1°
